Showing default

EXPLORER 38 (RAE-A), 3307

Orbit data source: Space-Track

EXPLORER 38 (RAE-A), 3307 is a payload satellite owned by GSFC (US) that was launched on Thu, 04 Jul 1968 UTC via a THOR DELTA J launch vehicle from the Air Force Western Test Range (AFWTR). Payload-class satellites include a variety of spacecraft equipped with specific instruments for various scientific and technological missions. These include communications satellites like Starlink; space stations such as the ISS; scientific satellites like the Hubble; Earth observation satellites from companies like Planet Labs, Umbra, and HawkEye 360; GPS; miniature CubeSats for education and research; and military/defense satellites.

Loading next visibility...
Identifier
3307, 1968-055A
Orbit
Active
Country
Flag of USUS
Related business
Manufacturer
GSFC/FAIRH
Mission
Civil Astronomy
Bus & Motor
RAE, Unknown motor
Mass
189 kg wet, 189 kg dry
Launch date (UTC)
1968-07-04 (57 years ago)
Launch vehicle
THOR DELTA J
Launch site
Air Force Western Test Range (AFWTR)
Object type
Payload
Rocket body
Debris
Shape & HBR
Cyl + 4 Rod, 114.0 m
Radar Cross Section
0.884 m², Large (>1 m²)

Expand to show TLE details & history
Last TLE update: 2 days ago

TLE from 2 days ago
0 EXPLORER 38 (RAE-A)
1 03307U 68055A   25257.24991275 -.00000010  00000-0  00000-0 0  9999
2 03307 120.8741  18.3744 0007491 243.0747 116.9090  6.42413250341701
Epoch: 2025-09-14T05:59Z
TLE epoch observation values (Epoch: 2025-09-14T05:59:52.461Z)
Latitude
0.00004°
Longitude
-65.06583°
Altitude
5,850.27 km
Speed
5.709 km/s
True Right ascension
01h 13m 29s
True Declination
0° 00' 00"
Sunlit
Object was in full shadow at epoch
Visualization orbit readout
Latitude
Unknown
Longitude
Unknown
Altitude
Unknown
Speed
Unknown
Apparent Right ascension
Unknown
Apparent Declination
Unknown
Sunlit
N/A
Visualization observer readout
Local Sidereal Time
16:01:25
Azimuth
Unknown
Elevation
Unknown
Doppler factor
Unknown
Orbital elements
Apogee altitude
5,854.053 km
Perigee altitude
5,835.74 km
Semi-major axis
12,223.034 km
Eccentricity
0.00075
Inclination
120.8741°
RAAN
18.3744°
Arg. of periapsis
243.0747°
True anomaly
116.98551°
Mean anomaly
116.909°
Eccentric anomaly
116.94726°
Mean motion
1.60611 °/min
Orbital period
224.14 mins
BSTAR
0
Loading maneuver chart data...
Computing Atmospheric mass density...
Loading historical data...
Loading historical data...
Loading historical data...
Loading historical data...
Loading historical data...
Loading historical data...
Loading historical data...

Documentation

Showing up to 5 results
|